[[{"header":{"parameterUnit":"m.s-1","parameterCategory":1,"la1":30.2991,"la2":30.254,"lo1":-89.0895,"lo2":-89.0444,"dy":0.0017,"dx":0.0017,"nx":28,"ny":28,"refTime":"2025-08-08T21:00:00:Z","depth":0,"parameterNumber":2,"parameterNumberName":"U-component_of_WINDS"},"data":[0,0,0,0,0,0,0,0,0,0,0,0,0,0,0,0,0,0,0,0,0,0,0,0,0,0,0,0,0,0,0,0,0,0,0,0,0,0,0,0,0,0,0,0,0,0,0,0,0,0,0,0,0,0,0,0,0,0,-3.2058,-3.2058,0,-3.2017,-3.2017,-3.2016,-3.1935,-3.1934,-3.1932,-3.1931,-3.1892,-3.1892,-3.1893,0,0,0,0,0,0,0,0,0,0,0,0,0,-3.2071,-3.2071,-3.2058,-3.2058,-3.2057,-3.2017,-3.2017,-3.2016,-3.1936,-3.1934,-3.1932,-3.193,-3.1892,-3.1892,-3.1893,0,0,0,0,0,0,0,0,0,0,0,0,0,-3.2052,-3.2071,-3.2058,-3.2012,-3.2008,-3.2017,-3.2017,-3.2016,-3.1936,-3.1934,-3.1931,-3.1929,-3.1891,-3.1892,-3.1893,-3.1945,0,0,-3.1895,-3.1895,0,0,0,0,0,0,0,0,-3.2053,-3.2051,-3.202,-3.2016,-3.201,-3.1979,-3.2007,-3.1992,-3.1937,-3.1964,-3.1931,-3.1928,-3.1923,-3.1921,-3.1918,-3.1943,-3.1941,-3.1895,-3.1895,-3.1896,-3.1896,0,0,0,0,0,0,0,-3.2054,-3.2052,-3.2042,-3.2019,-3.2014,-3.1995,-3.1989,-3.2004,-3.1957,-3.1961,-3.1955,-3.1951,-3.192,-3.1918,-3.1917,-3.1941,-3.1895,-3.1895,-3.1896,-3.1896,-3.2009,-3.2011,0,0,0,0,0,0,-3.2062,-3.2054,-3.2043,-3.2041,-3.2026,-3.1997,-3.1991,-3.1992,-3.1957,-3.1949,-3.1953,-3.1947,-3.1918,-3.1916,-3.1915,-3.1976,-3.1896,-3.1896,-3.1897,-3.2006,-3.2009,-3.2012,0,0,0,0,0,0,-3.2062,-3.2062,-3.2045,-3.2046,-3.2042,-3.1999,-3.2001,-3.1992,-3.199,-3.1951,-3.1943,-3.196,-3.1916,-3.1914,-3.1938,-3.1973,-3.1897,-3.1897,-3.2003,-3.2007,-3.2011,-3.2097,0,0,0,0,0,0,-3.2063,-3.2062,-3.2081,-3.2047,-3.2043,-3.2068,-3.2003,-3.1993,-3.1991,-3.1983,-3.1955,-3.1948,-3.1914,-3.1938,-3.1939,-3.1973,-3.1898,-3.2,-3.2005,-3.2009,-3.2091,-3.2103,-3.2114,0,0,0,0,0,-3.2064,-3.2107,-3.2082,-3.2081,-3.2064,-3.207,-3.2068,-3.2027,-3.1994,-3.2013,-3.1988,-3.1949,-3.1969,-3.1941,-3.1942,-3.1976,-3.1997,-3.2003,-3.2009,-3.2086,-3.2101,-3.2114,0,0,0,0,0,0,-3.2146,-3.2101,-3.2074,-3.2106,-3.2093,-3.2056,-3.2079,-3.2044,-3.2041,-3.2034,-3.1984,-3.1979,-3.201,-3.1995,-3.1965,-3.2026,-3.1977,-3.1983,-3.2035,-3.2049,-3.2061,-3.2064,-3.1898,0,0,0,0,0,-3.2168,-3.2176,-3.2136,-3.2169,-3.2164,-3.2123,-3.2124,-3.2094,-3.2078,-3.2072,-3.2049,-3.2036,-3.204,-3.2043,-3.2044,-3.2088,-3.2082,-3.2112,-3.2124,-3.2133,-3.214,-3.2164,-3.2178,-3.2031,-3.2031,-3.2031,0,0,-3.2214,-3.219,-3.2198,-3.2185,-3.2171,-3.2181,-3.2118,-3.2131,-3.2139,-3.2074,-3.2096,-3.2079,-3.2061,-3.2096,-3.211,-3.2085,-3.2179,-3.2141,-3.2149,-3.215,-3.2172,-3.2186,-3.2198,-3.2035,-3.2034,-3.2034,0,0,-3.2303,-3.2285,-3.2311,-3.2298,-3.2277,-3.225,-3.2257,-3.2226,-3.2212,-3.2233,-3.2185,-3.2194,-3.22,-3.2191,-3.2187,-3.2274,-3.2238,-3.2275,-3.2337,-3.2361,-3.2373,-3.2383,-3.2416,-3.2429,-3.2282,-3.2282,-3.2282,0,-3.2363,-3.2375,-3.2329,-3.2346,-3.2343,-3.2284,-3.2312,-3.2301,-3.2283,-3.2283,-3.2254,-3.2262,-3.2246,-3.2279,-3.2301,-3.2298,-3.2306,-3.2279,-3.2374,-3.2384,-3.2393,-3.2424,-3.2437,-3.2287,-3.2286,-3.2286,-3.2285,0,-3.2451,-3.246,-3.2484,-3.2467,-3.2467,-3.2489,-3.2448,-3.2453,-3.2424,-3.24,-3.2423,-3.2402,-3.2399,-3.2404,-3.2375,-3.2434,-3.2419,-3.2383,-3.2333,-3.2413,-3.2442,-3.2453,-3.2294,-3.2292,-3.229,-3.2289,0,0,-3.2591,-3.2549,-3.2559,-3.2551,-3.2525,-3.2532,-3.2552,-3.2548,-3.2555,-3.2544,-3.2561,-3.2569,-3.2536,-3.2532,-3.2501,-3.2522,-3.2596,-3.2484,-3.2483,-3.2508,-3.2662,-3.2691,-3.2706,-3.2571,-3.2573,-3.2575,-3.2665,0,-3.2676,-3.2707,-3.2667,-3.2708,-3.2718,-3.2662,-3.268,-3.2667,-3.2646,-3.2652,-3.2628,-3.2636,-3.259,-3.2588,-3.2606,-3.2583,-3.2627,-3.2576,-3.259,-3.2591,-3.2598,-3.272,-3.275,-3.2836,-3.2675,-3.2677,-3.2678,0,-3.2779,-3.2773,-3.2815,-3.2787,-3.2789,-3.2806,-3.2801,-3.2806,-3.2791,-3.2774,-3.277,-3.2734,-3.2754,-3.2704,-3.2732,-3.2698,-3.2702,-3.2692,-3.2694,-3.2695,-3.2641,-3.2728,-3.2862,-3.2876,-3.2695,-3.2694,-3.2693,0,-3.288,-3.2882,-3.2908,-3.2903,-3.2871,-3.2884,-3.2872,-3.2853,-3.2854,-3.285,-3.285,-3.2848,-3.2848,-3.2848,-3.2814,-3.278,-3.2847,-3.2794,-3.2836,-3.2838,-3.2854,-3.2854,-3.2994,-3.2853,-3.2853,-3.2853,-3.2852,0,-3.298,-3.3008,-3.2953,-3.297,-3.3001,-3.2955,-3.2987,-3.2969,-3.2954,-3.2967,-3.2918,-3.2932,-3.2884,-3.2893,-3.2866,-3.2895,-3.2895,-3.2884,-3.2877,-3.2889,-3.2891,-3.2892,-3.2887,-3.2856,-3.2855,-3.2854,-3.2854,0,-3.3099,-3.3063,-3.3088,-3.3055,-3.3048,-3.3072,-3.3045,-3.306,-3.3035,-3.3053,-3.3055,-3.3017,-3.3025,-3.299,-3.2992,-3.2974,-3.3019,-3.3,-3.3024,-3.302,-3.3065,-3.3062,-3.3212,-3.323,-3.3076,-3.3077,-3.3078,0,-3.3166,-3.3187,-3.3156,-3.3161,-3.3151,-3.316,-3.316,-3.3117,-3.312,-3.3105,-3.3122,-3.3126,-3.3128,-3.3144,-3.3118,-3.3121,-3.3104,-3.3156,-3.3104,-3.3117,-3.3108,-3.3108,-3.3111,-3.3168,-3.3169,-3.3171,-3.3172,0,-3.329,-3.3271,-3.3274,-3.3271,-3.3273,-3.3269,-3.3261,-3.3268,-3.3222,-3.3228,-3.3236,-3.3237,-3.3239,-3.3246,-3.3243,-3.3231,-3.3196,-3.3189,-3.3199,-3.3213,-3.3227,-3.3223,-3.3056,-3.3186,-3.3184,-3.3183,-3.3183,-3.3182,-3.3387,-3.3403,-3.3385,-3.339,-3.338,-3.3374,-3.3387,-3.3365,-3.337,-3.3368,-3.3342,-3.3356,-3.3342,-3.3334,-3.3327,-3.3338,-3.3314,-3.3328,-3.3332,-3.3337,-3.3346,-3.3224,-3.3337,-3.3337,-3.3336,-3.3336,-3.3335,0,-3.351,-3.3496,-3.3501,-3.3492,-3.3497,-3.346,-3.3451,-3.3458,-3.347,-3.3459,-3.3461,-3.3472,-3.3478,-3.3453,-3.3456,-3.347,-3.3454,-3.3472,-3.3472,-3.3471,-3.3366,-3.3358,-3.3486,-3.3486,-3.3485,-3.3485,-3.3485,-3.3485,-3.3575,-3.3602,-3.3582,-3.3604,-3.359,-3.3602,-3.36,-3.3596,-3.3587,-3.3601,-3.3605,-3.3588,-3.3572,-3.3574,-3.3579,-3.3571,-3.3576,-3.3601,-3.3589,-3.3492,-3.3478,-3.3464,-3.3456,-3.3602,-3.3602,-3.3692,-3.3693,-3.3694]},{"header":{"parameterUnit":"m.s-1","parameterCategory":1,"la1":30.2991,"la2":30.254,"lo1":-89.0895,"lo2":-89.0444,"dy":0.0017,"dx":0.0017,"nx":28,"ny":28,"refTime":"2025-08-08T21:00:00:Z","depth":0,"parameterNumber":3,"parameterNumberName":"V-component_of_WINDS"},"data":[0,0,0,0,0,0,0,0,0,0,0,0,0,0,0,0,0,0,0,0,0,0,0,0,0,0,0,0,0,0,0,0,0,0,0,0,0,0,0,0,0,0,0,0,0,0,0,0,0,0,0,0,0,0,0,0,0,0,0.5423,0.5423,0,0.5395,0.5395,0.5394,0.5412,0.5413,0.5414,0.5415,0.5383,0.5382,0.538,0,0,0,0,0,0,0,0,0,0,0,0,0,0.5491,0.5489,0.5423,0.5423,0.5423,0.5395,0.5395,0.5394,0.5412,0.5413,0.5414,0.5415,0.5384,0.5382,0.538,0,0,0,0,0,0,0,0,0,0,0,0,0,0.5462,0.5489,0.5423,0.5428,0.5429,0.5395,0.5395,0.5394,0.5412,0.5413,0.5415,0.5416,0.5384,0.5382,0.538,0.5339,0,0,0.5372,0.5371,0,0,0,0,0,0,0,0,0.5463,0.5459,0.5428,0.5428,0.5428,0.5409,0.5407,0.5376,0.5412,0.5418,0.5415,0.5416,0.539,0.5388,0.5379,0.5338,0.5336,0.5372,0.537,0.5369,0.5369,0,0,0,0,0,0,0,0.5465,0.5461,0.5412,0.5428,0.5428,0.5431,0.5429,0.5401,0.5397,0.5418,0.5419,0.5416,0.5391,0.5382,0.5379,0.5336,0.5372,0.537,0.5368,0.5367,0.5258,0.5257,0,0,0,0,0,0,0.5467,0.5462,0.5413,0.5411,0.5449,0.5429,0.5426,0.5414,0.5398,0.5397,0.5415,0.5417,0.5385,0.5382,0.5378,0.5328,0.5369,0.5367,0.5366,0.5259,0.5258,0.5256,0,0,0,0,0,0,0.5469,0.5463,0.5414,0.5437,0.5431,0.5427,0.5412,0.5412,0.5403,0.5395,0.5395,0.5406,0.5386,0.5381,0.5348,0.5327,0.5366,0.5364,0.5261,0.5259,0.5257,0.5228,0,0,0,0,0,0,0.547,0.5463,0.5448,0.5437,0.543,0.5386,0.5411,0.5411,0.5399,0.5402,0.5387,0.5386,0.5387,0.5352,0.5346,0.5324,0.5362,0.5263,0.526,0.5257,0.5231,0.5225,0.522,0,0,0,0,0,0.5473,0.5441,0.5447,0.5441,0.5411,0.5385,0.5381,0.5383,0.5398,0.5382,0.5377,0.5387,0.5331,0.5349,0.5342,0.5319,0.5264,0.5261,0.5258,0.5233,0.5226,0.522,0,0,0,0,0,0,0.5449,0.5439,0.5446,0.541,0.5398,0.5388,0.5368,0.5376,0.5359,0.5361,0.5364,0.5361,0.5326,0.532,0.534,0.5278,0.53,0.5295,0.5283,0.5276,0.5271,0.5272,0.536,0,0,0,0,0,0.544,0.542,0.5412,0.5381,0.5375,0.5372,0.5361,0.5364,0.5351,0.5346,0.5338,0.5325,0.5305,0.5291,0.5272,0.5231,0.5227,0.5212,0.5207,0.5202,0.5197,0.5173,0.5166,0.5245,0.5245,0.5245,0,0,0.542,0.5412,0.5399,0.5376,0.5367,0.5345,0.5368,0.5344,0.5327,0.5342,0.531,0.5304,0.529,0.5252,0.5236,0.5246,0.5175,0.5198,0.5195,0.5192,0.5169,0.5162,0.5155,0.5243,0.5244,0.5244,0,0,0.5371,0.5365,0.5337,0.5328,0.5314,0.5313,0.5307,0.5295,0.5292,0.5261,0.5271,0.5251,0.5216,0.5205,0.5194,0.5143,0.515,0.5137,0.5108,0.5085,0.5078,0.5073,0.5052,0.5044,0.5132,0.5132,0.5132,0,0.5348,0.5316,0.5321,0.5296,0.5285,0.5299,0.527,0.5261,0.5241,0.5233,0.5245,0.5201,0.5192,0.5152,0.5139,0.5131,0.5122,0.5137,0.5079,0.5073,0.5068,0.5048,0.5041,0.513,0.5131,0.5131,0.5131,0,0.5286,0.5264,0.5243,0.5224,0.5211,0.5184,0.5185,0.5171,0.5175,0.5173,0.514,0.513,0.5109,0.51,0.5104,0.5059,0.5066,0.5079,0.51,0.5059,0.504,0.5032,0.5128,0.5129,0.5129,0.513,0,0,0.5219,0.5205,0.5197,0.5188,0.5175,0.5157,0.5131,0.5111,0.5097,0.5085,0.5061,0.5032,0.5043,0.5032,0.5035,0.5015,0.4972,0.503,0.503,0.5017,0.492,0.4907,0.4899,0.4978,0.4977,0.4976,0.492,0,0.5168,0.5122,0.5127,0.5083,0.5061,0.5075,0.5052,0.5041,0.5038,0.5019,0.5016,0.4994,0.5012,0.5005,0.4986,0.4981,0.4952,0.4986,0.4954,0.4953,0.4954,0.4889,0.4876,0.4824,0.4913,0.4912,0.4911,0,0.5102,0.5086,0.504,0.5029,0.502,0.4999,0.4981,0.4963,0.495,0.495,0.4937,0.4944,0.4916,0.4941,0.4902,0.4925,0.4913,0.4908,0.4906,0.4901,0.4927,0.4879,0.4808,0.4798,0.49,0.4901,0.4901,0,0.5054,0.5022,0.499,0.4982,0.497,0.4954,0.4948,0.4937,0.4925,0.4909,0.49,0.4881,0.487,0.4854,0.4855,0.4874,0.4815,0.484,0.4812,0.4811,0.4796,0.4796,0.4718,0.4794,0.4794,0.4794,0.4794,0,0.4994,0.4965,0.4968,0.4948,0.4915,0.4921,0.4888,0.4883,0.4874,0.4852,0.4864,0.4843,0.4848,0.4827,0.4828,0.4794,0.479,0.4787,0.4787,0.4784,0.4784,0.4773,0.4776,0.4792,0.4792,0.4793,0.4793,0,0.4934,0.4935,0.49,0.4892,0.4889,0.4865,0.4857,0.4837,0.4837,0.4809,0.4803,0.4801,0.4777,0.4778,0.4751,0.4752,0.4709,0.4715,0.4713,0.4713,0.4684,0.4685,0.4593,0.458,0.4668,0.4667,0.4666,0,0.4894,0.4871,0.486,0.4847,0.484,0.4819,0.4806,0.4811,0.4797,0.4782,0.4763,0.4741,0.4723,0.4685,0.468,0.4659,0.4662,0.4632,0.4659,0.4656,0.4658,0.4658,0.4655,0.4625,0.4624,0.4624,0.4623,0,0.4821,0.4823,0.4805,0.4786,0.477,0.4756,0.4743,0.4731,0.4735,0.4719,0.4695,0.4681,0.4654,0.4631,0.4611,0.4604,0.4613,0.4615,0.4607,0.4601,0.46,0.4597,0.4695,0.4616,0.4617,0.4617,0.4618,0.4618,0.4768,0.4748,0.4737,0.4715,0.4706,0.4694,0.4674,0.4671,0.4652,0.463,0.4635,0.4607,0.4596,0.457,0.4562,0.454,0.455,0.4539,0.4535,0.4532,0.4527,0.4607,0.4536,0.4537,0.4537,0.4537,0.4537,0,0.4693,0.4687,0.4668,0.4649,0.4632,0.4644,0.463,0.4615,0.459,0.4579,0.4561,0.4533,0.4511,0.4506,0.4484,0.4468,0.4471,0.4461,0.4461,0.4458,0.452,0.4528,0.4459,0.4459,0.4459,0.4459,0.4459,0.4459,0.4652,0.4618,0.4619,0.458,0.4575,0.4548,0.4539,0.4527,0.4517,0.4486,0.4467,0.4465,0.4455,0.4433,0.4413,0.4412,0.4402,0.439,0.439,0.4447,0.4454,0.4462,0.4469,0.4388,0.4388,0.433,0.4329,0.4329]}]]